Home   Weather   San Marino   Past weeks

Flag for San Marino Past Weather in San Marino, San Marino — Yesterday and Last 2 Weeks

Now
63 °F

Passing clouds.


Feels Like: 63 °F
Forecast: 50 / 59 °F
Wind: 7 mph from South

Location: Rimini Airport

Current Time: Apr 25, 2017 at 10:46:53 am

Latest Report: Apr 25, 2017 at 9:45 am


Visibility: N/A

Pressure: 29.98 "Hg (27.72 "Hg at 666m altitude)

Humidity: 73%

Dew Point: 54 °F

Location of San MarinoLocation

Past Weather in San Marino — Graph

°F

San Marino Temperature Yesterday

Maximum temperature yesterday: 66 °F (at 12:15 pm)
Minimum temperature yesterday: 48 °F (at 6:45 am)
Average temperature yesterday: 59 °F

High & Low Weather Summary for the Past Weeks

 TemperatureHumidityPressure
High72 °F (Apr 13, 3:15 pm)100% (Apr 10, 9:15 pm)30.42 "Hg (Apr 10, 9:15 pm)
Low37 °F (Apr 22, 6:45 am)36% (Apr 19, 4:15 pm)29.77 "Hg (Apr 18, 10:15 am)
Average58 °F81%30.02 "Hg
* Reported Apr 10 9:15 am — Apr 25 9:15 am, San Marino, Weather by CustomWeather, © 2017

Note: Actual official high and low records may vary slightly from our data, if they occured in-between our weather recording intervals... More about our weather records

Advertising

San Marino Weather History for the Previous 24 Hours

Scroll right to see more
 ConditionsComfort  
Time TempWeatherWind HumidityBarometerVisibility
9:15 am
Tue, Apr 25
61 °FPassing clouds.6 mph72%29.98 "HgN/A
8:45 am59 °FPassing clouds.6 mph77%29.98 "HgN/A
8:15 am54 °FPassing clouds.2 mph94%29.98 "HgN/A
7:45 am52 °FPassing clouds.2 mph94%29.98 "HgN/A
7:15 am52 °FSunny.No wind94%29.98 "Hg10 mi
6:45 am52 °FSunny.2 mph94%29.98 "Hg10 mi
6:15 am52 °FSunny.2 mph94%29.98 "Hg10 mi
5:45 am52 °FClear.No wind94%29.98 "Hg10 mi
5:15 am52 °FClear.No wind94%29.98 "Hg10 mi
4:45 am52 °FClear.No wind94%29.98 "Hg10 mi
2:45 am54 °FClear.1 mph94%30.01 "Hg10 mi
2:15 am54 °FClear.2 mph94%30.01 "Hg10 mi
1:45 am54 °FClear.1 mph94%30.01 "Hg10 mi
1:15 am54 °FClear.No wind94%30.04 "Hg10 mi
12:45 am54 °FClear.1 mph94%30.04 "Hg10 mi
12:15 am54 °FClear.1 mph94%30.04 "Hg10 mi
11:45 pm
Mon, Apr 24
55 °FClear.1 mph94%30.04 "Hg10 mi
11:15 pm57 °FClear.2 mph94%30.04 "Hg10 mi
10:45 pm57 °FClear.2 mph94%30.04 "Hg10 mi
10:15 pm59 °FClear.No wind94%30.04 "Hg10 mi
9:45 pm59 °FClear.No wind94%30.04 "Hg10 mi
9:15 pm61 °FClear.1 mph94%30.04 "Hg10 mi
8:45 pm61 °FClear.2 mph94%30.04 "Hg10 mi
8:15 pm61 °FClear.8 mph94%30.04 "Hg10 mi
7:45 pm64 °FSunny.12 mph94%30.04 "Hg10 mi
7:15 pm64 °FSunny.12 mph94%30.04 "Hg10 mi
6:45 pm64 °FSunny.9 mph94%30.04 "Hg10 mi
6:15 pm64 °FSunny.8 mph94%30.07 "Hg10 mi
5:45 pm64 °FSunny.8 mph88%30.07 "Hg10 mi
5:15 pm64 °FSunny.8 mph88%30.07 "Hg10 mi
4:45 pm64 °FSunny.7 mph88%30.07 "Hg10 mi
4:15 pm64 °FSunny.8 mph83%30.07 "Hg10 mi
3:45 pm66 °FSunny.10 mph78%30.09 "Hg10 mi
3:15 pm64 °FSunny.12 mph78%30.09 "Hg10 mi
2:45 pm66 °FSunny.12 mph78%30.09 "Hg10 mi
2:15 pm64 °FSunny.10 mph73%30.09 "Hg10 mi
1:45 pm64 °FSunny.10 mph78%30.09 "Hg10 mi
1:15 pm66 °FSunny.10 mph78%30.12 "Hg10 mi
12:45 pm66 °FSunny.10 mph78%30.12 "Hg10 mi
12:15 pm66 °FSunny.8 mph68%30.12 "Hg10 mi
11:45 am64 °FSunny.7 mph73%30.12 "Hg10 mi
11:15 am64 °FSunny.7 mph68%30.12 "Hg10 mi
10:45 am64 °FSunny.6 mph68%30.12 "Hg10 mi
10:15 am63 °FSunny.3 mph68%30.12 "Hg10 mi
Weather by CustomWeather, © 2017

See weather overviewHow to use our weather pages